This demonstration page uses our WeatherBlox Daily Observations layout. Learn more.

Left ArrowRight Arrow

39.08367, -84.50855

Hourly Observations for March 12, 2020

Temp ( °F °C ) Dew Point ( °F °C ) Humidity (%) Winds ( mph kmh ) Pressure ( in mb ) Visibility ( mi km ) Precip ( " mm )
12:53 am 00:53 Cloudy 44 6.7 42 5.6 93 93 N N/A 30.03 1017 10 16 N/A
1:53 am 01:53 Cloudy 44 6.7 42 5.6 93 93 N N/A 30.01 1016 10 16 N/A
2:53 am 02:53 Mostly Cloudy 44 6.7 42 5.6 93 93 S 3 6 30.01 1016 9 14 N/A
3:53 am 03:53 Mostly Clear with Mist and Fog 40 4.4 39 3.9 97 97 N N/A 30.00 1016 5 8 N/A
4:35 am 04:35 Mostly Clear with Mist and Fog 38 3.3 37 2.8 97 97 N N/A 30.00 1016 2 2 N/A
4:42 am 04:42 Clear with Fog 38 3.3 37 2.8 97 97 N N/A 30.00 1016 0 0 N/A
4:53 am 04:53 Clear with Fog 37 2.8 36 2.2 96 96 N N/A 29.98 1015 1 1 N/A
5:05 am 05:05 Mostly Cloudy with Fog 36 2.2 35 1.7 97 97 SSW 5 7 30.00 1016 1 1 N/A
5:24 am 05:24 Mostly Clear with Mist and Fog 38 3.3 38 3.3 100 100 WSW 3 6 30.00 1016 1 2 N/A
5:28 am 05:28 Mostly Clear with Mist and Fog 39 3.9 39 3.9 100 100 N N/A 30.00 1016 3 5 N/A
5:53 am 05:53 Mostly Clear with Mist and Fog 37 2.8 36 2.2 96 96 N N/A 29.98 1015 2 2 N/A
6:01 am 06:01 Mostly Clear with Fog 37 2.8 37 2.8 100 100 N N/A 30.00 1016 1 1 N/A
6:19 am 06:19 Mostly Cloudy with Mist and Fog 37 2.8 36 2.2 96 96 N N/A 30.00 1016 1 2 N/A
6:26 am 06:26 Cloudy with Mist and Fog 38 3.3 38 3.3 100 100 SW 3 6 30.01 1016 4 6 N/A
6:53 am 06:53 Cloudy with Mist and Fog 40 4.4 40 4.4 100 100 N N/A 29.99 1016 6 10 N/A
7:53 am 07:53 Cloudy with Mist and Fog 41 5 40 4.4 96 96 SW 3 6 29.98 1015 6 10 N/A
8:53 am 08:53 Mostly Cloudy with Mist and Fog 43 6.1 41 5 93 93 N N/A 29.98 1015 5 8 N/A
9:53 am 09:53 Partly Cloudy with Mist and Fog 46 7.8 42 5.6 86 86 N N/A 29.97 1015 5 8 N/A
10:53 am 10:53 Sunny 50 10 44 6.7 80 80 N N/A 29.94 1014 7 11 N/A
11:53 am 11:53 Sunny 60 15.6 47 8.3 62 62 S 8 13 29.91 1013 10 16 N/A
12:53 pm 12:53 Mostly Cloudy 63 17.2 48 8.9 58 58 SSE 10 17 29.88 1012 10 16 N/A
1:53 pm 13:53 Mostly Cloudy 65 18.3 49 9.4 56 56 SSW 8 13 29.84 1011 10 16 N/A
2:53 pm 14:53 Cloudy 65 18.3 50 10 59 59 S 8 13 29.81 1010 10 16 N/A
3:53 pm 15:53 Mostly Cloudy 65 18.3 50 10 59 59 S 7 11 29.77 1008 10 16 N/A
4:53 pm 16:53 Cloudy 65 18.3 53 11.7 66 66 S 8 13 29.75 1008 10 16 N/A
5:53 pm 17:53 Cloudy with Light Rain 64 17.8 54 12.2 70 70 SSW 5 7 29.76 1008 6 10 0.00 0.00
6:53 pm 18:53 Cloudy with Light Rain 60 15.6 57 13.9 90 90 SSE 7 11 29.72 1006 6 10 0.12 3.05
7:53 pm 19:53 Cloudy with Rain 59 15 57 13.9 93 93 ENE 3 6 29.72 1007 5 8 0.09 2.29
8:53 pm 20:53 Cloudy with Light Rain 59 15 57 13.9 93 93 SSE 6 9 29.67 1005 6 10 0.04 1.02
9:02 pm 21:02 Cloudy with Light Rain 59 15 57 13.9 93 93 SW 5 7 29.68 1005 8 13 0.01 0.25
9:53 pm 21:53 Cloudy with Light Rain 60 15.6 58 14.4 93 93 SSW 10 17 29.68 1005 5 8 0.04 1.02
10:53 pm 22:53 Cloudy 60 15.6 58 14.4 93 93 WSW 9 15 29.67 1005 10 16 0.00 0.00
11:34 pm 23:34 Cloudy with Light Rain 60 15.6 59 15 96 96 S 9 15 29.68 1005 10 16 0.01 0.25
11:53 pm 23:53 Cloudy 61 16.1 59 15 93 93 SSW 10 17 29.67 1005 10 16 0.01 0.25

Powered by AerisWeather